FW4376 Weather Reports


time (UTC)temp
C
wind
direction
speed
KPH
gust
KPH
rain 1hr
cm
rain 24hr
cm
rain mn
cm
humidity
%
barometer
mb
20260503231554 26 144 6.4 19.3 0.00 0.00 0.00 41 1016.0
20260503230055 26 250 4.8 19.3 0.00 0.00 0.00 40 1016.1
20260503224548 27 276 3.2 17.7 0.00 0.00 0.00 40 1016.1
20260503223047 27 146 4.8 20.9 0.00 0.00 0.00 39 1016.3
20260503221547 27 248 6.4 12.9 0.00 0.00 0.00 38 1016.4
20260503220044 27 269 4.8 17.7 0.00 0.00 0.00 36 1016.5
20260503214542 27 112 4.8 20.9 0.00 0.00 0.00 36 1016.6
20260503213045 28 75 6.4 17.7 0.00 0.00 0.00 36 1016.8
20260503211543 28 223 4.8 22.5 0.00 0.00 0.00 36 1017.0
20260503210035 28 219 6.4 17.7 0.00 0.00 0.00 34 1017.4
20260503204535 28 161 6.4 11.3 0.00 0.00 0.00 36 1017.6
20260503203032 28 148 3.2 17.7 0.00 0.00 0.00 35 1017.8
20260503201530 28 172 4.8 14.5 0.00 0.00 0.00 38 1018.2
20260503200031 28 257 3.2 14.5 0.00 0.00 0.00 38 1018.3
20260503194525 27 242 3.2 17.7 0.00 0.00 0.00 40 1018.6
20260503193025 27 282 6.4 17.7 0.00 0.00 0.00 40 1018.8
20260503191520 27 169 6.4 16.1 0.00 0.00 0.00 41 1018.9
20260503190037 27 252 6.4 19.3 0.00 0.00 0.00 41 1019.0
20260503184515 27 255 6.4 17.7 0.00 0.00 0.00 43 1019.2
20260503183016 27 262 3.2 16.1 0.00 0.00 0.00 45 1019.6
20260503181511 26 166 8.0 17.7 0.00 0.00 0.00 44 1019.9
20260503180012 26 2 6.4 16.1 0.00 0.00 0.00 45 1020.2
20260503174508 26 266 4.8 17.7 0.00 0.00 0.00 45 1020.4
20260503173007 26 250 4.8 12.9 0.00 0.00 0.00 46 1020.6
20260503171505 26 248 4.8 16.1 0.00 0.00 0.00 46 1020.7
20260503100109 13 256 0.0 3.2 0.00 0.00 0.00 72 1020.0
20260503081554 15 250 0.0 6.4 0.00 0.00 0.00 67 1019.8
20260503071602 14 244 0.0 3.2 0.00 0.00 0.00 70 1020.0
20260503054542 15 100 0.0 3.2 0.00 0.00 0.00 68 1020.0
20260503053036 15 224 0.0 4.8 0.00 0.00 0.00 67 1020.1
20260503051534 16 185 0.0 6.4 0.00 0.00 0.00 67 1020.0
20260503050034 16 249 0.0 3.2 0.00 0.00 0.00 66 1019.9
20260503044532 16 167 0.0 3.2 0.00 0.00 0.00 65 1020.0
20260503043133 17 149 0.0 4.8 0.00 0.00 0.00 64 1019.9
20260503041531 17 260 0.0 3.2 0.00 0.00 0.00 61 1020.0
20260503040030 17 98 0.0 3.2 0.00 0.00 0.00 59 1020.1
20260503034530 18 139 0.0 4.8 0.00 0.00 0.00 57 1019.9
20260503033041 18 145 0.0 3.2 0.00 0.00 0.00 57 1019.9
20260503031529 18 190 0.0 3.2 0.00 0.00 0.00 56 1019.8
20260503030028 18 167 0.0 1.6 0.00 0.00 0.00 56 1019.8
20260503024528 18 203 0.0 1.6 0.00 0.00 0.00 55 1019.7
20260503023028 18 155 0.0 1.6 0.00 0.00 0.00 55 1019.7
20260503021529 18 237 0.0 4.8 0.00 0.00 0.00 56 1019.5
20260503020027 18 221 0.0 0.0 0.00 0.00 0.00 55 1019.3
20260503014541 18 221 0.0 0.0 0.00 0.00 0.00 55 1019.2
20260503013032 19 221 0.0 1.6 0.00 0.00 0.00 51 1019.1
20260503011524 20 221 0.0 0.0 0.00 0.00 0.00 51 1019.0
20260503010024 21 221 0.0 0.0 0.00 0.00 0.00 48 1018.8
20260503004528 21 221 0.0 1.6 0.00 0.00 0.00 45 1018.7
20260503003024 22 221 0.0 1.6 0.00 0.00 0.00 41 1018.6
20260503001525 23 86 0.0 3.2 0.00 0.00 0.00 41 1018.7
20260503000022 23 24 0.0 3.2 0.00 0.00 0.00 41 1018.7
20260502234521 23 42 0.0 6.4 0.00 0.00 0.00 40 1018.8
20260502233020 23 352 1.6 4.8 0.00 0.00 0.00 38 1018.9